GFSCGP_850_temp_000.txt.gz
Temp
20 18 16 17 19 20 20 19 19 19 20 19 18 18 20 18 16 16 16 15 15 15 14 14 14 13 13 13 12 12 12 11 11 11 11 11 11 11 10 10 10 10 10 10
17 17 17 19 19 19 18 18 17 18 19 18 18 17 16 15 16 17 16 15 15 15 14 14 14 13 13 13 13 12 12 12 11 12 12 11 11 11 10 10 10 10 10 10
17 19 19 19 19 19 18 18 18 18 19 18 18 16 17 17 16 16 16 17 16 15 15 14 14 13 13 13 13 13 12 12 12 12 12 12 12 11 11 11 10 10 10 10
17 19 19 18 19 18 18 18 18 18 18 16 18 14 16 16 15 14 15 15 16 15 15 15 14 13 13 13 13 13 12 13 12 12 12 13 12 12 11 10 11 11 11 11
19 18 18 18 19 18 18 19 18 18 16 16 17 13 15 15 16 14 13 14 17 16 16 15 14 14 13 13 13 13 12 13 12 12 12 13 13 12 12 12 12 12 12 11
19 20 18 19 19 18 20 19 15 13 13 13 16 14 14 15 16 16 14 14 16 16 15 15 14 14 13 13 13 13 13 13 13 12 13 13 13 12 12 12 13 13 13 12
19 18 19 21 19 19 18 15 14 13 12 13 15 15 15 17 17 16 15 14 16 16 16 15 14 14 14 13 13 13 13 13 13 13 12 12 13 14 13 12 12 12 13 13
17 18 18 20 19 18 16 15 14 15 13 15 15 16 17 17 18 18 18 16 15 16 16 16 15 14 14 14 13 13 13 13 13 13 13 13 13 13 13 13 12 12 13 13
16 17 19 19 20 19 17 16 16 15 15 14 15 16 16 18 16 15 14 14 14 16 16 16 15 14 14 14 14 14 13 13 12 13 13 13 13 13 13 13 12 12 13 13
17 17 18 20 20 20 19 17 17 13 16 16 15 16 15 17 19 14 12 12 14 16 16 16 15 15 14 14 14 14 13 13 12 12 12 12 13 12 12 13 13 13 13 13
16 16 18 18 17 17 17 16 14 14 13 13 12 13 14 18 17 15 13 14 16 17 17 17 16 15 15 14 14 14 14 13 13 12 12 12 13 12 12 12 13 13 13 14
16 15 15 17 17 17 18 16 15 14 15 13 13 15 16 15 15 16 15 15 16 16 18 17 16 15 15 14 14 14 14 14 14 13 13 12 12 12 12 12 12 12 13 13
15 14 14 15 16 17 18 15 15 13 12 13 15 16 16 16 17 16 16 15 15 16 17 17 16 15 15 15 15 15 14 14 14 13 13 13 13 13 12 12 12 12 12 13
19 14 16 17 18 16 17 16 15 15 13 15 14 18 18 18 19 17 16 16 16 16 17 17 17 16 15 15 15 15 15 14 14 13 13 13 13 12 12 12 12 12 12 12
16 15 15 18 18 17 19 17 15 16 16 16 17 16 18 18 18 17 18 15 15 16 16 17 17 16 15 15 15 15 15 15 14 14 13 13 13 12 12 12 12 12 12 12
13 15 15 16 17 17 18 17 16 18 16 17 18 17 16 18 19 18 18 16 15 17 17 17 17 17 16 15 15 15 15 15 14 14 13 13 13 12 12 12 12 12 12 12
14 13 12 14 15 15 16 18 16 17 16 16 17 17 15 15 15 18 18 17 18 17 18 17 18 18 17 16 16 16 16 15 15 14 13 13 13 13 12 12 12 12 12 12
13 12 12 12 14 14 16 16 18 18 17 15 17 16 16 18 21 22 21 21 19 18 19 19 18 19 18 17 16 16 16 16 16 15 14 13 13 13 12 11 12 12 12 12
11 11 11 12 10 14 16 14 15 16 16 16 17 16 17 19 19 21 23 23 22 22 21 21 20 19 19 18 17 16 16 16 16 16 15 14 14 14 13 12 12 12 12 12
10 12 12 8 12 14 14 15 16 17 16 14 17 14 15 17 16 19 23 23 23 22 21 22 20 19 19 19 17 16 16 16 16 16 16 15 15 15 15 14 13 13 13 14
9 9 13 9 10 12 14 14 18 15 16 16 17 17 16 16 19 23 23 23 23 23 22 21 20 20 20 19 18 17 17 17 17 16 16 16 16 16 16 15 15 15 15 15
11 10 10 8 12 14 14 15 16 16 20 20 19 19 19 21 21 22 23 22 23 23 22 21 20 20 19 19 19 17 17 17 17 16 16 16 16 16 16 16 16 15 15 16
14 12 12 12 13 13 15 17 21 22 21 20 20 19 19 21 20 23 23 22 22 22 23 22 23 20 19 19 19 18 18 18 17 16 16 16 16 16 16 16 16 16 16 16
13 11 12 14 14 13 15 17 18 19 21 21 21 21 21 21 22 22 21 21 21 21 23 24 21 20 20 20 20 19 19 18 18 17 16 16 16 16 16 16 16 16 16 16
13 12 11 13 14 13 14 18 20 19 19 20 20 20 20 20 19 20 20 20 21 22 21 23 23 23 22 22 21 19 19 19 18 18 17 16 16 16 16 16 16 16 16 17
11 12 14 14 13 15 17 20 20 19 18 19 19 19 19 19 19 20 20 21 21 21 22 22 21 22 23 23 21 20 20 19 19 18 18 17 17 16 16 16 16 16 16 17

GFSCGP_850_temp_003.txt.gz
Temp
21 22 22 23 22 23 23 22 22 22 23 22 22 22 22 22 18 18 16 15 14 15 16 15 14 13 13 13 12 12 12 12 12 13 12 11 11 11 11 10 10 10 10 10
20 21 22 22 22 21 21 22 21 22 21 21 22 22 22 21 20 19 17 16 15 14 15 15 14 14 13 14 13 12 13 12 12 13 12 11 11 11 11 10 10 10 9 10
23 23 21 21 21 21 21 21 21 22 21 21 20 21 22 23 18 17 17 16 15 15 14 15 14 14 14 14 13 13 13 13 13 13 12 12 12 11 11 10 10 10 10 10
22 21 21 21 21 22 21 22 22 21 20 21 21 20 21 23 21 19 18 15 15 14 15 15 14 14 14 13 13 13 13 13 13 13 12 12 12 12 11 10 10 11 10 10
22 20 21 21 22 21 22 21 21 21 20 19 20 19 23 19 22 23 22 17 15 15 15 16 15 14 14 13 13 13 13 13 13 13 12 12 12 12 11 11 11 11 11 11
23 20 22 23 22 22 23 20 19 18 19 19 21 21 22 23 23 24 22 17 15 15 14 16 15 14 14 13 13 13 13 13 13 13 12 12 12 12 12 12 11 12 12 11
21 21 21 22 22 20 21 21 20 19 20 20 18 19 22 24 23 23 23 19 15 14 14 15 15 14 14 13 13 13 13 13 13 13 13 12 12 12 12 12 12 11 12 12
20 20 21 21 23 22 21 22 21 18 19 21 18 20 23 23 21 19 19 18 15 14 14 15 15 14 14 14 13 13 13 13 13 13 13 12 12 12 12 12 13 12 12 11
20 21 21 22 23 23 20 20 22 21 18 20 21 21 22 22 21 20 17 15 14 14 15 15 15 15 14 14 14 13 13 13 13 13 13 12 12 12 12 12 13 13 12 12
20 20 21 22 23 21 22 22 20 19 19 19 21 20 22 24 24 21 17 16 14 14 15 15 15 15 14 14 14 14 13 13 13 13 13 12 12 12 13 13 13 13 13 13
21 22 19 20 21 22 21 21 20 21 21 20 20 21 23 23 22 21 19 16 15 15 15 15 16 15 14 14 14 14 14 14 13 13 13 12 12 12 12 13 13 13 14 14
21 21 21 20 20 23 23 22 22 21 20 20 21 22 23 21 21 20 18 16 15 15 16 15 16 15 14 14 14 14 14 14 14 13 13 12 12 12 12 12 12 13 13 14
19 21 20 20 19 18 21 21 22 21 20 21 21 22 21 20 21 18 18 16 14 16 15 15 15 15 15 14 14 14 14 14 14 13 13 13 12 12 12 12 12 12 13 13
20 20 21 20 21 21 20 20 20 21 21 22 21 23 23 22 22 19 18 16 16 16 17 16 15 15 15 15 14 14 14 14 14 13 13 13 13 12 12 12 12 12 12 13
20 20 21 22 22 22 22 22 21 20 22 21 23 21 24 24 23 22 19 16 15 16 16 17 16 15 16 15 15 15 15 14 14 14 13 13 13 13 12 12 12 12 12 12
16 20 20 21 22 22 22 22 22 21 22 22 23 23 24 22 21 20 18 16 16 16 17 16 17 17 16 16 15 15 15 15 14 14 13 13 13 13 12 12 12 12 12 12
17 18 18 20 20 21 19 22 22 21 22 22 22 23 22 21 21 21 18 17 17 18 17 17 19 18 17 16 16 15 15 15 15 14 14 13 13 13 12 12 12 12 12 12
15 17 18 19 18 17 20 22 23 22 22 22 23 24 21 24 22 22 20 19 18 20 19 18 19 19 19 17 16 16 15 15 15 14 14 14 13 13 12 12 12 12 12 12
15 16 16 17 18 20 19 18 21 21 21 21 22 24 22 21 21 21 20 22 23 23 23 22 21 20 19 18 17 16 15 15 15 15 14 14 14 14 13 13 12 12 12 12
14 15 17 15 18 19 22 20 18 22 21 21 21 23 21 20 22 24 22 22 23 22 22 22 22 20 20 19 18 17 16 16 15 16 15 15 15 14 14 14 13 13 13 12
15 14 16 15 16 18 19 19 19 20 22 21 20 21 20 21 24 23 23 22 22 23 23 21 21 22 21 20 18 17 16 16 16 16 16 15 15 15 15 14 14 14 14 14
16 15 16 15 16 17 17 17 20 22 19 20 19 20 18 21 21 21 22 22 22 23 23 21 21 22 21 20 19 18 17 18 17 16 16 16 16 16 15 15 15 15 15 15
14 18 18 18 19 18 17 20 21 22 21 20 20 19 20 20 19 20 22 21 21 22 23 22 20 21 21 20 20 19 19 18 17 17 16 16 16 16 16 16 16 15 15 15
16 16 17 18 19 19 17 17 18 20 20 21 22 23 22 20 20 20 19 21 21 21 22 22 20 21 21 20 20 20 19 18 18 17 17 16 16 16 16 16 16 16 16 16
17 17 17 17 19 17 17 17 17 19 20 21 21 22 22 21 20 20 20 20 21 21 22 22 22 22 23 22 21 19 19 19 18 17 17 17 16 16 16 16 16 16 17 17
14 16 16 18 19 19 20 22 19 18 21 21 21 20 20 20 20 20 20 20 20 20 21 21 22 22 22 22 20 20 20 19 19 18 17 17 17 16 16 16 16 16 16 17

GFSCGP_850_temp_006.txt.gz
Temp
23 25 24 26 26 27 26 25 25 26 27 25 25 26 26 26 26 25 24 22 20 19 18 16 15 14 14 13 13 12 12 12 12 12 12 11 11 11 11 10 10 10 10 11
24 24 26 27 27 26 25 25 25 26 26 25 25 25 26 26 26 26 24 22 20 19 18 16 15 14 14 14 13 12 12 12 13 12 12 11 11 10 11 11 10 10 10 11
25 25 27 26 25 24 25 25 25 24 25 25 25 25 26 26 26 25 23 23 21 19 18 16 15 14 14 14 13 13 12 13 13 13 12 12 12 11 11 11 11 11 11 11
25 27 26 25 25 25 24 26 25 24 24 23 25 23 25 26 27 27 25 22 22 20 18 17 16 15 15 14 13 13 12 14 13 13 12 11 11 12 11 11 11 11 11 11
25 26 25 24 25 26 25 26 25 24 24 24 24 23 25 27 26 27 27 25 22 20 18 17 16 15 15 14 14 13 13 13 12 13 13 12 12 11 11 12 11 11 11 11
26 26 26 26 26 26 26 24 24 24 24 22 24 24 25 26 26 27 27 25 22 20 18 17 16 16 15 14 14 13 13 13 12 12 12 11 12 12 11 11 11 11 11 11
24 25 26 26 25 25 25 24 22 22 23 22 24 23 25 26 27 27 27 26 21 19 18 17 16 16 15 15 14 14 14 13 13 12 12 11 11 12 12 11 11 11 11 11
24 23 25 25 25 24 24 24 24 21 22 24 23 23 26 27 26 25 24 23 21 19 18 17 17 16 16 15 14 14 14 14 13 13 12 12 12 12 12 12 12 11 11 11
24 25 26 26 26 26 25 23 25 24 24 23 25 25 26 27 27 26 24 21 20 19 18 18 17 16 16 15 14 14 14 14 13 13 12 12 12 13 12 12 12 12 12 12
25 24 25 25 25 26 26 25 22 23 21 21 24 24 25 26 26 25 24 22 20 19 18 18 17 16 16 15 14 14 14 14 13 13 12 12 12 12 13 12 12 13 13 12
25 24 24 25 24 25 24 24 24 25 25 23 22 24 27 26 26 26 25 22 20 19 19 18 17 16 16 15 15 14 14 14 13 13 12 12 12 12 12 12 13 13 13 12
25 24 23 23 25 26 26 24 24 23 22 23 24 25 27 27 26 26 25 22 21 20 19 19 18 17 16 16 15 14 14 14 14 13 13 12 12 12 12 12 12 13 13 13
24 23 22 23 23 24 24 25 25 24 24 23 24 24 27 26 26 25 24 22 20 20 20 19 18 17 17 16 16 15 14 14 14 14 13 12 12 12 12 13 13 13 14 13
23 23 23 23 23 24 22 24 25 24 23 23 24 25 27 26 26 25 24 22 21 20 20 19 18 18 17 16 16 16 15 15 14 14 13 12 12 12 12 12 12 12 13 13
23 22 23 24 26 25 24 24 24 24 24 24 25 25 26 27 27 27 24 22 21 21 20 19 18 18 17 17 16 16 15 15 14 14 13 12 12 12 12 12 12 12 12 13
23 22 23 23 25 25 24 25 25 24 25 25 25 25 27 27 27 26 24 22 22 21 21 20 19 18 18 17 16 16 16 15 14 14 14 13 13 12 12 12 12 12 12 12
22 22 22 22 24 24 23 24 25 25 25 25 24 26 27 27 26 26 24 23 22 22 22 21 19 18 18 17 16 16 16 15 14 14 14 13 13 13 12 12 12 12 12 12
21 21 22 23 23 20 24 26 26 25 25 26 26 26 27 27 26 26 25 24 23 22 22 21 20 19 18 17 16 16 16 15 15 15 14 14 13 13 12 12 12 12 12 13
21 22 22 22 22 23 23 24 25 24 24 26 26 26 27 27 26 26 26 24 23 23 22 21 20 19 18 17 17 16 16 16 16 15 15 14 14 13 13 12 12 12 12 12
19 22 22 21 20 20 24 25 25 26 24 26 26 26 27 27 25 27 25 24 24 23 22 21 20 19 18 17 17 16 16 16 16 16 15 15 14 13 13 12 12 13 13 12
18 19 20 21 20 23 24 26 24 22 24 26 26 25 26 26 26 27 26 24 23 22 22 21 20 19 19 17 17 17 17 16 17 17 16 15 14 13 13 12 13 13 13 12
19 19 20 21 21 20 24 24 23 25 24 25 25 25 25 24 24 25 24 23 23 22 21 21 20 19 18 18 17 17 17 17 17 17 16 15 14 14 13 14 14 14 13 13
19 21 21 21 21 22 22 24 23 25 25 24 25 24 24 24 24 24 23 23 23 22 21 21 20 19 18 17 18 18 17 17 17 17 16 15 14 14 13 15 15 14 15 13
18 19 19 20 22 22 22 22 23 23 24 24 24 24 23 23 24 23 22 22 22 22 21 21 20 20 18 17 18 19 18 17 17 17 16 15 14 14 14 13 14 14 14 14
18 19 18 18 20 21 22 22 22 22 22 21 23 23 23 23 23 23 22 22 22 22 22 21 20 20 19 17 17 18 18 18 17 16 16 15 15 15 15 15 14 14 15 15
17 18 18 19 20 21 21 22 22 21 21 21 23 23 22 23 23 22 23 22 22 22 22 21 20 20 20 18 18 17 18 18 17 16 16 16 16 15 15 14 14 15 15 17

GFSCGP_850_temp_009.txt.gz
Temp
24 25 25 26 27 28 28 28 28 29 30 29 28 27 28 29 28 28 28 27 26 24 22 19 17 17 16 15 14 14 13 13 12 13 13 12 12 12 11 11 10 11 11 10
26 24 27 28 28 28 28 28 28 28 29 28 27 27 28 29 28 28 28 27 26 24 22 19 17 16 16 15 15 14 14 13 13 13 12 12 12 12 11 11 11 11 10 10
25 27 28 28 28 28 28 27 27 27 28 28 27 26 28 29 29 28 28 27 26 24 22 19 18 16 16 16 15 14 14 13 13 13 13 12 12 12 12 12 11 11 11 11
27 28 28 27 27 28 27 28 28 27 26 25 28 25 27 28 29 29 28 27 26 24 22 20 18 17 16 16 15 14 14 13 13 14 13 13 13 12 12 12 12 11 11 11
26 27 28 27 28 29 27 28 28 27 26 26 26 26 27 29 28 28 29 28 26 24 22 20 18 17 17 16 15 15 14 13 13 12 12 13 12 12 12 12 12 12 12 12
28 29 29 29 29 28 29 28 27 27 26 24 26 26 27 28 28 28 29 28 26 24 22 20 19 17 17 16 16 15 14 14 13 13 12 12 12 11 12 12 12 11 12 12
27 28 29 30 28 28 28 26 24 23 24 24 27 26 27 28 29 29 28 28 26 24 22 20 19 18 17 16 16 15 15 14 14 14 13 13 13 12 12 12 12 11 11 12
26 26 28 29 28 27 27 26 25 22 24 26 27 25 27 29 29 28 27 26 25 23 21 20 19 18 18 17 16 16 15 15 14 14 13 13 13 12 12 12 12 12 11 12
26 27 29 28 28 29 27 25 27 26 26 26 27 28 28 28 28 28 27 25 24 22 21 20 19 19 18 17 16 16 15 15 14 14 13 13 13 12 13 13 12 12 11 12
28 26 29 28 28 28 28 28 25 26 23 23 26 27 27 27 28 28 27 25 23 22 21 20 20 18 18 17 16 15 15 15 14 14 14 13 13 13 13 12 12 12 13 12
28 27 28 28 26 27 27 27 26 27 26 25 25 27 29 28 28 28 27 25 23 22 22 21 20 18 18 17 17 15 15 15 15 14 13 13 13 13 13 13 13 13 12 13
27 27 26 27 28 28 28 27 27 25 24 26 27 27 29 28 28 28 28 25 24 23 22 21 20 19 18 17 17 16 16 16 15 14 14 13 13 13 13 13 13 13 13 13
27 26 25 26 27 27 26 27 27 27 26 25 25 26 30 29 28 28 28 26 24 23 22 21 20 19 19 18 17 17 16 16 16 15 14 13 13 13 12 13 13 12 12 13
26 26 25 26 26 27 25 26 27 26 25 25 26 27 28 28 28 28 27 26 25 23 22 22 21 20 19 18 18 17 17 16 16 16 14 13 13 13 13 13 13 13 13 13
25 24 25 27 28 27 26 26 27 26 26 25 26 27 28 29 29 28 27 26 25 24 23 22 21 20 20 19 18 18 17 17 16 16 15 13 13 13 13 13 13 14 13 13
25 24 25 25 27 28 26 26 27 27 27 27 27 27 29 29 29 28 27 26 25 24 23 22 21 21 20 19 18 18 17 17 16 16 15 14 13 14 13 13 13 13 14 14
24 24 24 23 26 26 26 27 27 27 27 27 26 27 29 29 29 28 27 26 25 24 24 23 22 21 20 19 19 18 17 17 16 16 15 14 14 14 13 13 13 13 13 13
24 23 24 24 25 23 26 29 28 27 27 28 27 28 29 29 28 28 28 27 26 25 24 23 22 21 20 19 19 18 18 17 16 16 16 15 15 14 14 14 13 13 12 13
24 24 23 23 24 25 26 27 27 26 26 28 27 28 29 28 28 28 27 27 26 25 24 24 22 21 20 19 19 18 18 17 17 17 16 16 15 15 14 14 13 12 12 12
24 24 23 23 23 23 26 28 28 28 25 28 28 28 28 28 28 29 28 27 26 25 25 24 23 21 20 19 19 18 18 18 18 18 17 16 16 15 14 14 12 12 12 12
21 22 22 23 22 25 28 28 27 24 25 28 27 27 27 28 28 28 28 27 26 25 25 24 23 21 20 19 18 18 18 18 18 18 18 17 16 15 14 13 13 12 12 13
21 21 22 23 22 23 28 28 25 27 27 27 27 27 27 27 27 27 27 26 25 25 25 24 23 22 20 19 19 18 18 19 19 19 18 17 16 15 14 13 12 12 12 13
21 23 23 24 24 26 27 27 26 26 26 27 27 27 27 27 27 27 26 26 25 25 24 24 23 22 20 19 19 19 18 19 19 19 18 17 16 15 14 13 12 12 12 13
21 24 23 23 24 25 25 25 25 25 26 26 26 26 26 26 26 26 26 25 25 25 24 24 23 22 21 19 19 19 19 19 19 19 18 17 16 15 14 14 13 14 13 14
17 18 22 22 24 23 24 25 25 25 25 24 25 26 26 26 26 26 25 25 25 25 24 23 23 23 22 20 19 19 19 19 19 18 18 17 16 15 15 15 15 15 15 15
16 14 19 21 22 22 23 23 24 24 24 24 24 25 25 26 26 25 25 25 24 24 24 24 23 23 22 21 20 20 20 19 19 18 18 17 17 15 16 15 16 15 16 15

GFSCGP_850_temp_015.txt.gz
Temp
22 19 19 21 22 22 22 22 23 24 26 26 25 26 26 26 26 26 27 28 28 27 24 22 21 20 19 18 17 16 14 14 14 14 13 14 14 13 13 13 12 12 12 12
19 19 21 23 23 22 23 22 22 24 26 26 25 24 24 25 26 27 28 28 27 23 22 21 21 19 18 18 17 15 14 14 14 13 14 14 13 13 13 12 12 12 11 11
19 21 23 22 22 22 22 22 22 23 25 26 25 23 25 26 27 28 28 28 25 24 22 21 19 19 18 17 16 15 14 14 14 14 14 13 13 13 13 12 12 12 12 12
20 22 23 22 22 23 21 24 24 24 24 21 26 20 24 24 23 24 27 26 24 23 22 21 19 18 17 17 16 15 14 14 13 14 14 14 13 12 12 12 12 12 12 12
20 21 21 22 22 23 23 25 25 25 23 22 24 20 21 24 23 23 25 26 23 23 23 20 19 18 17 16 16 15 14 14 14 14 13 13 13 13 12 12 12 12 12 12
22 24 23 22 24 25 25 24 24 24 24 19 22 21 22 22 24 25 26 25 23 22 21 20 19 18 17 16 16 15 14 14 14 13 13 13 13 13 13 12 12 12 12 12
22 22 24 24 23 25 25 22 20 18 19 17 23 22 21 23 24 25 21 22 23 22 21 19 18 18 17 17 16 15 14 14 14 14 13 14 13 13 13 12 12 12 12 12
19 20 23 25 24 24 24 23 21 18 18 20 23 22 23 24 26 26 25 24 23 22 21 19 19 18 17 17 16 15 15 14 14 14 13 13 13 13 13 12 12 12 12 12
19 20 24 25 26 25 24 23 23 21 22 20 21 24 24 24 24 23 22 24 22 21 20 19 19 18 17 17 16 16 15 15 14 14 13 13 13 13 13 12 12 12 12 13
21 20 24 25 26 26 25 24 22 18 19 18 21 22 21 23 23 22 20 21 22 21 20 19 19 18 18 17 16 16 16 15 15 14 13 13 13 13 13 13 13 12 12 12
21 20 22 24 24 24 24 24 22 20 19 18 18 18 21 23 22 22 20 22 22 21 20 20 19 18 18 17 17 16 15 15 15 14 14 13 13 13 13 13 13 12 12 12
21 18 19 22 26 26 25 23 21 22 19 20 19 20 25 22 21 21 21 23 22 21 21 20 19 19 18 17 17 16 15 15 15 14 14 13 13 13 13 13 13 13 13 12
22 20 17 21 22 24 25 24 23 20 19 19 19 19 23 23 22 23 21 23 22 21 21 20 19 19 18 18 17 16 16 16 15 14 14 13 13 13 13 13 13 13 13 13
22 20 20 18 22 24 24 24 24 20 19 21 21 22 23 24 22 21 22 23 22 22 21 20 20 19 19 18 17 16 16 16 16 15 14 13 13 13 13 13 13 13 13 13
17 20 20 22 23 24 25 25 24 23 21 22 22 23 22 23 22 22 22 22 22 22 22 21 20 19 19 18 18 17 16 16 16 15 15 14 13 13 13 13 13 13 13 12
12 20 21 21 24 24 25 25 25 25 24 23 23 23 23 24 27 23 23 22 22 22 22 21 21 20 19 19 18 18 17 16 16 16 15 14 13 13 13 13 13 13 13 13
10 14 19 20 22 23 21 25 25 25 24 24 23 23 25 24 24 22 23 23 23 23 23 22 21 21 20 19 19 18 17 17 16 16 15 15 13 13 13 13 13 13 13 13
10 11 15 19 20 18 22 24 26 25 25 23 23 24 24 24 27 26 25 24 23 24 23 23 22 21 20 20 19 18 18 17 17 16 15 15 13 13 13 13 13 13 13 13
13 12 14 18 19 22 23 24 24 23 23 25 23 24 25 28 27 26 27 26 26 25 24 23 22 22 21 20 19 19 18 17 17 16 16 15 14 14 13 13 13 13 13 13
15 14 15 17 16 19 22 24 25 23 22 22 23 22 23 24 23 21 27 27 26 25 25 24 23 22 21 21 20 19 18 17 17 16 16 16 15 14 14 13 13 13 13 13
16 15 16 16 17 20 23 25 26 22 19 22 25 24 24 21 22 28 28 27 26 26 25 24 23 22 22 21 20 19 18 18 17 17 16 16 16 15 14 13 13 13 13 12
14 16 16 17 18 19 25 24 22 21 25 26 25 27 27 28 28 28 28 27 26 26 25 24 23 23 22 21 20 19 18 18 18 17 17 17 16 15 15 14 13 13 13 13
12 11 11 14 17 20 24 24 26 26 26 27 27 28 28 28 28 28 28 26 26 25 25 24 24 23 22 21 21 20 19 18 18 18 18 17 17 16 15 15 14 13 13 13
9 9 10 11 14 15 18 18 16 22 27 27 28 27 28 27 27 27 27 27 26 25 25 24 24 23 22 21 21 21 19 18 18 18 18 18 17 16 16 15 14 14 14 13
7 8 10 11 12 12 14 13 14 17 21 25 27 27 28 27 27 27 26 27 26 25 25 24 24 23 23 21 21 21 20 19 18 18 18 18 18 17 16 16 15 14 14 14
8 8 10 9 11 11 11 12 14 16 17 18 18 24 27 27 27 27 27 26 26 26 25 24 24 24 23 22 21 21 20 19 18 18 19 18 18 17 17 16 15 14 14 14

GFSCGP_850_temp_021.txt.gz
Temp
17 15 15 16 17 19 18 17 17 18 21 20 19 19 21 22 23 22 23 25 26 26 25 24 24 22 19 18 17 18 18 17 16 16 15 15 14 14 13 13 12 12 12 11
15 16 17 18 18 18 17 17 17 19 20 20 19 19 21 20 21 23 24 25 23 24 24 24 21 19 19 18 17 17 17 16 16 15 15 15 14 13 13 12 12 12 12 11
16 19 19 19 18 17 17 17 18 18 20 20 19 19 20 22 22 23 25 25 25 26 25 20 18 18 17 17 18 18 17 16 15 15 15 14 14 14 13 12 12 12 12 11
16 19 19 18 17 18 17 19 19 19 18 16 19 16 19 19 20 21 23 25 25 24 20 19 18 17 17 18 17 17 16 15 14 15 14 14 14 14 13 12 12 12 12 12
15 18 18 18 19 19 19 20 19 18 17 17 18 16 18 19 20 20 20 24 23 21 20 17 18 17 17 18 17 16 15 14 14 14 14 14 14 14 13 12 12 12 11 11
17 19 19 19 20 20 20 19 18 17 16 16 18 17 17 19 20 21 23 21 19 19 18 17 17 17 17 17 16 15 15 14 14 14 13 14 13 13 13 12 12 12 11 11
16 17 19 19 18 18 18 15 13 13 13 15 18 16 19 19 19 21 21 19 18 17 17 18 17 17 17 16 16 15 15 14 13 13 13 13 13 13 13 12 12 12 12 11
15 15 18 19 18 18 17 17 13 14 14 16 18 17 19 20 21 22 24 21 18 18 18 17 17 17 17 16 15 15 15 14 14 14 13 13 13 13 13 13 12 12 12 12
15 16 20 20 20 19 17 16 18 16 17 16 16 18 20 22 21 18 16 17 17 18 18 17 17 18 17 16 16 15 14 14 14 13 13 13 13 13 13 13 12 12 12 12
16 15 19 20 20 20 17 18 17 14 16 17 17 19 19 22 20 17 15 15 16 16 16 17 17 17 17 16 16 15 15 14 14 14 13 13 13 13 13 13 12 12 12 12
15 15 17 18 18 18 17 17 16 17 16 14 15 16 17 20 18 17 16 16 17 18 18 18 18 18 17 16 16 15 15 14 14 14 13 13 13 13 13 13 12 12 13 12
9 13 14 16 19 20 19 18 17 18 15 17 16 18 20 18 18 18 17 18 19 19 19 18 18 18 17 16 16 15 15 14 14 14 13 13 13 13 13 13 12 12 12 13
9 10 14 14 17 18 19 19 19 17 14 15 18 19 19 18 17 19 17 19 18 18 18 18 18 17 17 16 16 15 15 15 14 14 14 13 13 13 13 13 12 12 13 13
9 8 13 15 17 18 18 19 18 19 18 19 18 20 20 19 18 17 18 18 18 18 18 18 18 17 17 16 16 16 15 15 15 14 14 13 13 13 13 12 12 12 12 13
7 6 10 14 18 18 20 19 20 19 19 19 20 20 19 17 17 17 19 18 17 17 17 18 18 18 17 17 16 16 15 15 15 15 14 13 13 13 13 12 12 12 12 12
6 6 8 12 17 18 18 19 20 20 20 20 18 19 19 18 19 18 18 17 17 17 18 19 19 18 18 17 17 16 15 15 15 15 14 14 13 13 13 13 12 12 12 12
7 6 8 9 16 17 16 18 18 20 21 21 19 19 17 18 19 18 18 18 18 19 19 19 19 19 18 18 17 16 16 15 15 15 14 14 13 13 13 13 13 13 12 12
8 7 7 7 13 14 18 20 20 19 20 19 20 19 19 19 21 21 23 21 19 20 20 20 20 20 19 18 18 17 16 16 15 15 15 14 13 13 13 13 13 13 13 13
8 7 7 7 10 15 19 19 19 18 19 19 21 19 19 21 20 20 22 22 24 23 24 22 22 21 20 19 18 17 16 16 16 15 15 15 14 13 13 13 13 13 13 13
10 8 8 8 9 14 16 15 20 19 20 18 19 18 18 19 20 18 22 22 22 23 24 23 22 21 20 19 18 18 17 16 16 16 15 15 14 13 13 13 13 13 13 13
7 7 7 9 8 12 11 11 15 19 18 12 17 20 17 20 24 26 27 24 24 25 25 23 23 22 21 20 19 18 17 17 17 16 16 15 14 14 13 13 13 13 13 13
6 7 7 9 10 13 11 11 12 10 10 12 13 20 22 26 26 26 27 26 24 23 23 23 23 22 21 21 19 18 18 18 17 16 16 15 15 14 13 13 13 13 13 13
6 5 6 7 10 9 9 10 9 10 10 11 12 13 20 24 26 26 27 27 25 24 25 24 23 23 22 21 20 19 19 18 17 16 16 16 15 14 14 13 13 13 13 13
5 6 6 6 10 10 9 9 9 9 9 10 12 13 18 22 26 26 27 26 25 24 24 24 23 22 22 21 21 21 19 19 18 17 16 16 15 15 14 14 13 13 13 13
5 5 6 6 8 9 10 10 9 10 10 11 12 13 18 22 23 27 26 26 26 25 24 24 24 24 23 22 21 20 20 19 18 17 17 16 16 15 15 15 14 14 14 14
5 6 6 6 8 7 8 9 9 10 10 12 11 14 17 20 23 23 28 27 26 25 24 24 25 24 23 22 22 21 20 19 18 17 17 17 16 16 16 15 15 14 14 14

GFSCGP_850_temp_024.txt.gz
Temp
14 13 14 16 17 17 17 17 17 19 19 18 17 17 19 20 20 20 22 23 25 26 25 25 24 23 21 20 19 18 17 17 16 15 15 15 15 14 13 13 12 12 12 11
13 14 16 17 16 17 17 17 16 19 19 19 17 17 18 19 19 21 22 23 24 24 25 24 24 23 20 20 18 17 17 17 16 15 15 15 15 14 14 13 12 12 12 12
15 17 18 17 16 16 16 16 17 18 17 18 17 17 18 19 20 21 23 23 24 23 23 22 22 19 18 17 16 17 17 16 15 15 15 15 14 14 13 13 12 11 12 12
14 17 17 17 16 17 16 17 18 17 16 14 17 14 17 18 18 19 22 24 25 24 21 20 19 17 17 16 17 17 16 15 15 15 14 14 14 14 13 12 12 12 12 12
14 16 16 17 17 17 17 19 18 17 15 16 17 14 16 18 18 19 19 25 25 23 20 19 17 17 16 16 17 16 15 15 15 14 14 14 14 13 13 13 12 12 12 12
15 17 18 18 19 19 19 18 16 15 14 13 15 15 17 16 19 20 20 23 22 19 17 17 17 16 16 16 16 16 15 15 14 13 13 13 13 13 13 12 12 12 12 12
14 15 18 18 16 17 16 14 12 12 12 12 17 15 18 17 17 19 20 21 19 15 17 17 16 16 16 16 16 15 15 15 14 13 13 13 13 13 13 12 12 12 12 12
13 13 16 17 17 16 16 15 12 13 12 15 17 15 17 18 20 22 23 21 19 16 15 16 16 16 17 16 16 16 15 14 14 13 13 13 13 13 13 12 12 12 12 12
13 14 17 18 18 19 15 15 14 15 15 14 15 16 19 18 19 18 17 17 16 16 15 16 16 17 17 16 16 16 15 14 14 13 13 13 13 13 12 12 12 12 12 12
14 14 17 18 18 19 17 16 15 13 14 14 15 17 18 21 22 19 15 14 15 15 15 16 16 17 17 16 16 15 14 14 14 13 13 13 13 13 12 12 12 12 12 12
11 13 16 16 17 16 14 16 14 15 12 13 15 15 16 20 20 18 15 15 15 16 16 17 17 17 17 16 15 15 14 14 14 13 13 13 13 13 12 12 12 12 12 12
8 9 13 15 17 19 18 16 15 16 14 14 14 15 18 18 18 17 16 17 16 16 17 17 17 17 17 16 15 15 14 14 14 13 13 13 13 13 12 12 12 12 12 12
8 8 11 14 16 17 17 17 15 13 12 15 15 15 18 18 19 17 16 17 17 17 17 17 17 17 17 16 16 15 14 14 14 14 13 13 13 12 12 12 13 12 12 12
9 6 8 12 14 15 16 17 17 15 13 13 18 19 20 19 17 15 16 17 17 16 16 17 17 17 17 16 16 15 15 14 14 14 13 13 13 12 12 12 13 13 12 12
7 5 7 9 11 13 15 17 17 17 18 16 17 18 19 18 17 15 18 17 16 16 17 17 18 17 17 16 16 15 15 14 14 14 13 13 13 12 12 13 13 13 13 12
6 5 7 8 13 14 14 15 17 18 18 17 18 17 18 19 18 16 18 17 16 17 17 18 18 18 17 17 16 16 15 15 14 14 13 13 13 13 12 12 13 13 13 12
6 5 6 7 10 11 13 16 16 17 19 18 17 20 18 18 17 16 17 19 19 19 19 19 19 18 18 17 17 16 15 15 14 14 14 13 13 13 13 12 12 13 12 12
7 6 6 6 8 12 16 17 18 16 17 18 19 19 18 18 22 22 23 24 21 21 20 20 19 19 18 18 17 16 16 15 15 14 14 13 13 13 13 13 13 13 13 12
8 7 6 7 8 12 16 12 12 16 16 17 17 19 18 21 19 20 22 26 26 24 23 22 21 20 19 19 17 17 16 15 15 14 14 14 13 13 13 13 13 13 13 13
8 7 8 7 8 12 10 11 11 10 16 10 10 15 17 18 18 18 24 25 23 22 23 22 22 20 20 19 18 17 16 16 15 15 15 14 13 13 13 13 13 13 13 13
5 5 6 6 7 9 9 10 10 15 12 9 10 10 11 18 22 27 27 27 26 24 24 23 22 21 21 19 18 17 17 16 16 15 15 14 14 13 13 13 13 13 13 13
7 6 6 7 7 10 9 9 9 8 8 9 9 9 10 14 21 26 27 27 26 23 22 22 23 22 21 20 19 18 17 17 16 16 15 15 14 13 13 13 13 13 13 13
6 6 6 7 8 9 9 9 9 9 8 9 8 9 10 10 17 21 26 27 26 25 23 24 23 23 22 21 20 19 18 17 17 16 15 15 14 14 13 13 13 13 13 13
6 6 6 7 10 8 8 9 9 8 8 8 9 9 11 11 16 21 23 26 26 24 23 23 23 23 23 22 21 20 19 18 17 16 16 15 15 14 13 13 13 13 13 13
4 5 6 6 8 8 10 9 8 9 9 9 10 11 11 12 18 21 24 24 26 26 23 23 23 24 24 23 22 21 20 19 18 17 16 16 15 14 14 13 13 13 13 14
5 5 6 6 7 6 7 8 8 9 8 10 9 11 13 13 17 21 24 25 25 25 24 23 23 24 24 23 22 22 20 20 19 17 16 16 16 15 15 14 13 13 13 13

GFSCGP_850_temp_027.txt.gz
Temp
15 16 17 18 18 19 21 20 21 22 22 21 22 22 22 23 22 22 22 22 22 23 24 24 24 24 24 21 20 20 19 17 17 18 17 16 15 14 14 13 13 12 11 11
15 16 19 19 19 18 18 19 20 21 21 21 22 21 22 22 22 22 22 22 22 22 22 23 23 22 20 19 19 19 17 17 18 17 16 14 14 14 14 14 13 12 12 11
17 19 19 18 19 17 18 19 20 20 20 20 20 20 22 24 22 23 23 22 23 22 23 23 23 20 18 18 18 17 17 17 17 16 15 14 14 14 14 13 13 12 12 11
17 19 19 17 18 18 17 19 20 20 19 20 20 20 21 22 22 23 23 22 23 23 22 22 21 19 18 17 16 17 17 17 16 15 14 14 14 14 14 13 13 12 12 11
16 17 18 17 18 18 18 20 19 19 18 18 19 19 21 21 22 23 24 23 22 20 21 21 19 19 17 16 16 17 17 16 15 14 14 14 14 14 13 13 12 12 12 11
17 18 19 20 19 19 20 19 19 19 19 18 19 19 20 22 22 24 25 24 22 21 20 18 17 17 16 16 16 16 16 15 14 14 13 14 13 13 13 13 12 12 11 11
16 17 18 19 19 19 19 19 17 16 17 18 20 19 20 22 23 23 24 24 20 19 19 16 15 14 16 16 16 16 15 14 14 13 13 13 13 13 13 12 12 12 11 11
15 15 17 19 19 19 18 19 19 17 17 19 19 18 20 22 23 23 23 22 19 16 16 15 14 14 16 16 16 16 15 14 14 13 13 13 13 13 12 12 12 12 12 12
15 16 18 19 20 20 18 18 21 20 17 19 21 19 21 22 22 22 22 20 18 15 15 14 14 15 17 16 16 16 15 14 13 13 13 13 13 13 12 12 12 12 12 12
13 15 18 19 20 20 19 20 17 19 18 18 19 19 22 23 23 23 22 20 16 14 14 14 14 16 17 16 16 15 14 14 13 13 13 13 13 13 13 12 12 12 12 12
12 14 17 19 18 19 19 19 19 20 19 20 19 21 22 24 23 24 24 19 16 15 15 14 15 16 16 16 15 15 14 14 13 13 13 13 13 12 12 12 12 12 12 12
10 11 15 18 20 21 20 19 19 19 17 20 20 22 21 22 22 23 21 17 16 15 15 15 15 16 16 16 15 15 14 14 14 13 13 13 13 12 12 12 12 12 12 12
7 12 15 16 18 19 19 20 20 19 19 19 20 22 22 21 22 21 21 17 15 15 15 15 15 16 16 16 15 15 14 14 14 13 13 13 12 13 12 12 12 12 12 12
6 9 12 17 17 17 18 19 20 19 20 19 20 22 24 23 23 22 19 17 16 16 15 15 15 15 15 16 16 15 14 14 14 13 13 13 13 13 12 12 12 13 13 12
5 8 10 11 12 13 15 19 19 19 19 19 20 21 23 23 24 22 19 17 16 16 15 15 15 15 16 16 16 15 15 14 14 14 13 13 13 13 13 13 12 13 13 12
7 8 9 12 14 14 15 16 19 19 20 20 21 21 23 23 21 21 19 17 17 17 17 16 16 16 17 17 16 16 15 14 14 14 13 13 13 13 13 12 12 12 13 12
8 8 9 14 13 14 15 17 18 19 20 20 20 21 23 23 23 22 20 18 19 18 17 17 16 17 18 17 16 16 15 14 14 14 13 13 13 13 13 12 12 12 12 12
8 8 9 11 13 14 18 16 19 18 20 21 21 22 23 24 24 24 22 21 20 19 18 17 18 19 18 18 17 16 15 15 14 14 14 13 13 13 13 13 13 12 12 12
9 8 9 10 13 15 16 13 13 18 18 13 17 21 22 22 22 24 21 24 20 26 25 23 21 20 19 18 17 16 15 15 15 14 14 13 13 13 13 13 13 13 13 12
9 9 9 10 11 15 11 12 12 13 17 12 12 13 14 15 22 25 25 24 22 21 22 23 22 20 19 18 17 17 16 15 15 14 14 14 13 13 13 13 13 13 13 13
7 6 7 9 10 12 11 12 12 15 14 11 10 11 12 14 22 19 19 20 24 22 24 23 22 21 20 19 18 17 16 16 15 15 14 14 13 13 13 13 13 13 13 13
7 8 8 9 10 12 10 12 13 11 10 10 10 10 10 11 12 13 15 18 18 22 23 23 23 21 20 19 18 17 17 17 16 15 15 14 14 13 13 13 13 13 13 13
7 7 7 9 12 10 9 10 10 10 9 10 9 9 10 11 12 13 14 16 18 18 23 24 23 22 21 20 19 18 18 17 16 16 15 14 14 13 13 13 14 13 13 13
7 6 8 9 10 10 9 9 9 9 9 9 9 9 10 11 12 13 14 16 18 18 20 24 23 22 21 21 20 19 18 18 17 16 15 15 14 14 13 13 13 14 13 13
4 5 7 7 9 9 9 8 8 8 9 10 10 10 10 11 12 13 14 16 18 19 18 23 23 23 22 21 21 20 19 18 17 16 16 15 15 14 14 13 13 13 14 14
5 7 7 8 8 7 7 7 7 8 8 9 10 10 11 11 12 12 14 16 18 19 21 21 23 23 22 22 22 21 20 19 18 17 16 16 15 14 14 13 13 13 13 14

GFSCGP_850_temp_030.txt.gz
Temp
16 18 19 21 22 23 24 24 25 25 27 25 25 26 27 28 26 26 26 26 26 25 25 24 22 24 24 23 20 17 16 16 16 15 15 15 15 15 14 14 13 12 12 12
19 18 22 22 23 22 22 23 24 25 26 26 25 25 27 27 27 26 26 26 26 26 26 25 20 21 21 20 18 17 15 16 16 15 15 15 15 15 14 14 12 12 12 12
19 20 22 22 22 22 22 22 23 23 25 25 24 23 24 26 27 26 26 25 26 26 26 24 18 17 18 18 17 15 14 16 15 15 14 15 14 14 14 14 13 12 12 11
18 22 22 22 22 23 22 23 22 23 22 22 24 23 24 26 26 27 26 26 27 26 26 22 19 17 16 15 15 14 14 16 16 16 14 14 15 16 15 14 13 12 11 11
18 19 21 22 22 23 23 24 23 22 22 22 23 22 24 25 25 26 27 26 27 26 24 21 19 17 16 15 15 15 16 16 15 15 14 14 14 14 13 13 12 12 12 12
18 21 21 22 23 23 23 23 22 22 22 21 22 22 23 24 25 26 28 27 27 24 21 19 18 17 16 16 15 14 14 13 14 13 14 14 13 13 13 13 12 12 12 12
17 18 20 22 22 23 22 21 20 20 20 20 23 22 23 24 26 26 28 27 25 22 20 18 17 17 16 16 15 15 14 13 13 13 13 13 12 12 12 12 12 12 12 12
15 16 19 21 22 21 21 22 22 20 21 22 23 22 24 25 26 26 26 27 25 22 20 19 18 17 17 16 15 15 14 14 13 13 13 12 12 13 13 12 12 12 12 11
16 17 21 21 22 23 21 22 24 23 24 23 25 24 24 24 26 27 27 26 24 22 20 19 18 17 17 16 15 15 15 14 14 14 13 13 12 12 13 12 12 13 12 11
15 15 21 21 22 23 23 23 21 23 21 21 24 24 23 26 27 27 27 27 25 21 20 19 18 17 17 16 15 15 15 14 14 14 13 13 13 12 12 12 12 12 12 12
13 14 19 21 20 22 22 22 23 23 23 22 22 24 25 25 27 27 28 27 23 21 20 19 18 17 17 16 16 15 15 14 14 14 13 13 13 12 12 12 12 12 12 11
13 13 15 20 22 23 23 23 22 22 21 23 24 24 24 26 26 28 29 25 22 21 20 19 19 18 17 17 16 15 15 15 14 14 13 13 13 12 12 12 12 12 12 12
8 13 16 18 21 22 22 23 23 23 24 22 23 23 26 26 26 26 25 23 21 21 20 20 19 18 18 17 16 16 15 15 15 14 14 13 12 12 12 12 12 12 12 12
7 11 16 18 20 21 21 22 23 22 22 23 23 24 26 26 27 26 25 22 21 21 20 20 19 19 18 17 17 16 16 15 15 14 14 13 13 12 12 12 12 11 11 11
9 12 15 16 16 16 19 22 22 22 22 22 24 23 26 28 26 26 24 22 22 22 21 20 19 19 18 17 17 16 16 15 15 14 14 13 13 12 12 12 12 12 12 11
9 10 14 14 16 17 18 20 22 22 22 23 23 23 26 27 26 26 24 23 23 22 21 20 20 19 18 17 17 16 16 15 15 15 14 13 13 13 12 12 12 11 12 11
7 10 13 14 17 17 17 19 21 22 23 23 22 24 25 25 25 26 25 23 24 23 22 20 20 19 18 18 17 16 16 15 15 15 14 13 13 13 12 13 12 12 12 12
9 9 11 16 17 15 19 20 22 21 22 23 23 24 25 25 25 26 26 25 24 23 22 21 20 19 18 18 17 17 16 15 15 15 15 14 14 13 13 13 12 12 12 12
11 9 9 14 16 19 19 16 19 21 20 18 20 23 24 25 24 24 25 25 25 24 23 21 20 19 18 18 17 17 16 16 16 15 15 14 14 14 13 13 12 12 12 12
12 11 8 13 16 17 15 15 16 17 19 16 16 18 18 20 22 25 19 21 24 24 23 21 20 19 18 18 17 17 17 16 16 16 15 15 15 14 13 12 12 12 12 12
9 9 9 10 15 16 14 16 15 16 16 14 14 15 16 17 21 18 17 18 20 23 22 21 20 19 18 18 17 17 17 17 16 16 16 15 14 14 13 12 12 12 12 12
9 9 9 9 13 14 13 15 15 13 13 13 14 14 14 14 15 16 17 18 19 22 22 21 20 19 18 18 17 17 17 17 17 16 16 15 14 14 13 12 12 12 12 12
8 8 10 12 9 11 10 12 12 12 13 13 13 13 13 14 15 16 17 18 19 21 21 21 20 19 18 18 18 18 17 17 17 16 16 15 14 14 13 12 12 13 12 13
9 9 9 11 12 13 9 10 10 11 11 12 13 13 14 14 15 16 17 18 19 21 21 21 21 20 19 18 18 18 17 17 17 16 15 15 14 14 13 13 13 14 14 14
5 5 8 11 12 12 9 9 9 9 10 11 12 13 14 14 15 16 17 18 19 21 21 21 21 21 19 19 18 18 18 17 17 16 15 15 15 14 13 14 14 14 14 15
7 7 7 7 10 10 10 9 9 9 9 10 12 13 14 15 15 16 17 17 18 20 21 21 21 21 20 19 19 19 18 18 17 16 16 15 16 14 14 14 14 14 14 14

GFSCGP_850_temp_033.txt.gz
Temp
18 19 20 22 23 25 26 26 26 27 29 27 27 28 29 29 28 29 29 28 28 27 27 27 27 24 22 20 19 18 17 17 16 16 16 17 17 16 16 16 15 14 13 13
19 19 22 23 25 24 24 25 25 27 28 28 28 27 29 29 28 28 28 29 28 27 28 27 26 22 20 18 17 17 16 16 15 16 17 18 17 17 17 17 16 14 14 13
18 21 22 23 24 24 24 24 24 25 27 28 27 27 27 29 29 28 27 27 28 28 27 27 25 21 19 18 17 16 16 15 16 17 17 16 16 16 16 16 15 14 13 13
19 21 22 22 23 24 23 26 25 25 25 24 27 25 27 28 28 28 28 28 28 28 28 28 24 20 19 18 16 16 15 15 16 15 16 16 17 17 17 16 16 14 13 12
18 20 21 22 23 24 25 26 26 25 24 24 25 25 26 27 27 28 29 28 28 28 28 28 23 21 19 17 16 15 15 15 15 16 16 15 16 17 16 16 15 13 13 13
19 20 22 22 24 25 26 25 25 25 25 23 24 24 25 26 27 28 29 28 28 28 28 26 23 20 18 18 16 15 15 15 14 15 15 15 15 15 16 15 15 13 13 13
17 19 21 22 22 24 25 24 23 22 24 24 25 25 26 27 28 28 28 28 29 29 26 24 21 20 18 18 17 16 15 15 15 15 14 14 14 14 14 14 13 13 13 13
16 16 19 22 22 23 24 24 23 21 23 24 26 24 26 28 29 28 28 28 29 26 25 23 21 20 19 18 17 17 16 15 15 15 15 14 14 15 15 14 13 13 13 13
16 17 21 22 23 24 23 24 26 25 26 26 27 28 28 28 28 28 28 28 28 26 24 22 21 20 19 18 17 17 16 16 15 15 15 14 14 14 14 13 13 13 13 12
14 14 20 22 22 23 24 26 23 25 22 24 26 27 27 27 28 28 28 29 28 25 23 22 21 20 19 18 17 17 16 16 16 15 15 15 14 14 14 13 13 12 13 13
13 12 17 21 21 21 23 24 24 25 26 25 24 26 29 28 28 29 29 28 27 25 23 22 21 20 19 18 17 17 17 16 16 16 15 15 14 14 14 13 12 13 12 13
14 11 14 19 23 23 24 24 24 24 23 26 26 26 28 28 28 30 30 28 27 25 24 22 21 20 19 18 18 17 17 17 16 16 16 15 14 14 13 13 13 12 12 13
11 12 14 15 19 23 23 24 25 24 26 25 25 27 28 28 28 29 30 28 25 24 24 23 21 21 20 19 18 17 17 17 17 16 16 15 14 13 13 13 13 12 13 14
6 11 12 13 18 22 22 24 25 24 24 25 26 26 27 28 28 28 27 25 25 24 23 23 22 21 20 19 19 18 17 17 17 16 16 15 14 13 13 13 12 12 12 13
6 11 13 13 12 17 23 24 25 24 25 25 26 26 28 28 28 28 26 25 25 25 24 23 22 21 20 19 19 18 18 17 17 17 16 15 14 14 13 13 13 12 12 12
6 10 13 14 11 15 21 24 25 25 25 26 27 26 29 28 28 28 27 26 25 25 24 23 22 21 20 20 19 19 18 17 17 16 16 15 14 14 13 13 13 13 12 12
9 9 14 10 12 15 19 22 24 25 25 25 24 25 27 27 27 27 27 26 26 25 25 23 22 22 21 20 19 18 18 17 17 16 16 16 14 13 13 13 13 13 12 12
11 9 12 12 12 13 20 23 24 25 25 25 25 25 27 27 27 27 27 26 26 26 25 23 23 22 20 20 19 19 18 17 17 17 16 16 16 14 13 13 13 12 13 12
13 11 9 11 12 18 18 21 22 23 23 24 25 26 26 27 27 26 24 25 26 26 25 24 23 21 20 20 19 19 18 18 18 17 17 17 17 15 14 13 13 13 12 12
14 13 9 12 12 13 12 19 20 21 20 19 20 22 22 23 24 22 20 22 23 26 25 24 23 21 20 20 19 19 18 18 18 18 17 17 17 16 15 14 13 13 12 12
13 12 11 12 15 14 15 18 19 19 15 17 18 18 19 20 22 19 19 21 21 24 25 24 23 21 20 20 19 19 19 18 19 18 18 17 16 15 15 13 13 13 13 12
11 10 12 13 14 12 14 17 17 15 16 16 16 17 17 17 18 19 20 20 21 23 25 24 23 22 20 20 19 19 19 19 19 18 18 17 16 16 14 13 13 13 13 12
9 10 12 13 11 10 13 14 13 14 15 15 16 16 17 17 18 19 19 20 21 22 24 24 23 22 20 20 19 19 19 19 19 18 18 17 16 16 14 14 13 13 13 14
6 9 11 13 9 12 12 13 12 13 13 14 15 15 16 17 18 19 20 21 21 22 24 24 23 22 20 20 19 19 19 19 19 18 18 17 16 16 14 14 15 16 16 16
6 8 10 10 8 12 11 11 12 12 13 13 14 15 16 17 18 19 19 20 21 22 23 24 23 23 21 20 20 20 19 19 19 18 17 17 16 15 15 15 15 16 16 16
8 8 7 7 8 9 11 11 11 12 12 12 13 14 16 17 17 18 19 20 20 22 23 23 23 23 22 21 20 20 20 19 19 18 17 17 17 15 16 16 15 16 16 16

GFSCGP_850_temp_036.txt.gz
Temp
18 18 18 20 22 23 24 25 25 26 28 28 27 27 28 30 30 29 29 29 28 28 29 28 28 27 26 26 25 24 22 21 20 18 17 16 16 16 16 16 16 16 15 14
18 18 20 21 22 22 23 24 24 26 28 28 28 28 29 29 29 29 29 29 28 28 28 28 28 26 26 25 23 21 20 20 18 17 16 16 17 17 16 17 16 16 15 14
17 19 20 21 21 22 23 23 24 24 26 28 27 27 27 29 30 30 29 29 28 28 28 28 28 25 24 22 21 19 18 17 17 16 17 17 17 17 17 17 16 16 15 15
18 20 20 21 21 22 22 25 25 25 25 24 26 24 26 27 28 29 29 29 29 28 28 28 27 24 22 20 19 17 17 17 16 16 17 17 17 17 17 17 16 15 14 14
16 18 19 20 22 23 23 25 25 25 25 25 25 24 25 27 28 28 29 29 29 28 28 28 25 22 20 19 17 16 16 16 16 17 16 16 17 17 17 16 16 15 15 14
17 18 20 20 22 22 24 23 24 25 25 23 25 24 25 26 27 28 29 29 29 29 28 28 24 21 19 18 16 16 15 15 16 16 16 16 16 16 16 16 15 14 14 14
16 17 19 20 20 22 22 22 21 21 22 22 25 25 25 27 28 29 29 29 29 28 29 24 22 20 19 18 16 15 15 15 15 15 15 15 15 16 16 15 15 14 14 14
12 14 18 20 20 21 22 22 22 20 22 23 25 24 26 28 29 29 29 28 28 28 26 23 21 20 19 17 16 16 15 15 15 15 15 14 14 15 15 14 14 14 14 14
10 13 18 20 20 21 21 21 24 23 25 24 26 27 27 28 29 29 29 28 28 27 25 23 21 20 19 17 16 16 16 15 15 15 15 14 14 14 14 14 14 14 14 13
11 10 15 18 21 21 21 24 22 23 21 22 25 26 28 28 29 29 28 28 28 26 24 22 21 20 19 18 17 16 16 16 16 15 15 15 15 14 14 14 14 14 13 13
12 10 12 17 19 20 21 22 23 24 24 23 23 25 29 28 29 29 29 28 28 25 24 22 21 20 19 18 17 17 17 16 16 16 15 16 15 14 14 14 13 13 13 13
12 10 12 15 19 21 22 22 23 22 22 24 25 26 29 29 29 29 29 29 27 25 24 22 21 20 19 18 18 17 17 17 16 16 16 16 15 14 14 14 13 13 13 13
7 11 11 13 16 18 19 22 23 23 24 23 24 25 29 29 29 29 30 29 26 25 24 23 21 20 19 19 18 17 17 17 16 16 16 16 15 14 14 13 13 13 13 13
7 8 10 11 11 11 14 21 23 23 23 24 26 26 27 28 28 29 29 27 25 25 24 23 21 21 20 19 19 18 18 17 17 17 16 16 15 14 14 13 13 13 14 14
5 7 10 12 10 9 9 14 22 24 25 24 26 27 28 28 28 27 27 26 25 24 24 23 22 21 20 19 19 18 18 18 17 17 16 16 15 14 14 13 12 13 13 13
6 7 10 12 13 9 9 14 18 25 25 26 26 26 27 27 28 27 26 26 25 25 24 23 22 21 21 20 19 19 18 18 17 17 16 16 14 14 14 13 13 13 13 13
10 8 9 11 12 10 11 16 18 22 26 26 25 26 26 25 28 27 26 26 26 25 24 23 23 22 21 20 20 19 18 18 17 17 16 16 15 14 14 13 13 13 13 12
11 11 9 10 9 9 14 22 23 24 26 27 25 25 27 27 27 24 26 26 26 25 25 24 23 22 21 20 20 19 18 18 17 17 17 16 15 15 14 13 13 13 13 12
13 11 9 10 10 10 13 18 21 23 23 21 24 26 26 27 24 22 22 23 26 26 25 24 23 22 21 20 19 19 18 18 18 18 17 16 15 16 14 14 13 13 12 12
14 13 10 11 10 11 13 15 19 22 18 19 21 23 22 23 25 21 20 21 23 25 25 24 23 22 21 20 19 19 18 18 18 18 18 18 16 16 15 14 14 13 13 12
13 11 10 11 9 8 11 14 18 17 15 18 19 19 19 19 19 19 20 21 21 24 25 24 23 22 21 20 19 19 19 19 19 18 18 18 17 16 15 14 14 14 13 12
9 10 11 13 11 10 10 14 14 13 16 17 17 17 18 18 19 20 20 21 21 23 25 24 23 21 20 20 19 19 19 19 19 19 18 17 16 16 14 14 14 13 13 12
8 7 8 10 9 8 8 11 12 14 15 15 16 17 18 19 19 20 20 21 22 22 23 24 23 21 20 20 19 19 19 19 19 19 18 17 16 16 14 14 14 13 13 13
8 9 8 9 7 7 8 10 12 13 14 14 15 16 17 18 19 20 21 21 22 23 23 25 23 22 20 20 19 19 19 19 19 19 18 17 16 15 14 14 14 15 14 14
7 8 9 8 8 8 9 10 12 13 13 13 14 15 17 18 18 19 20 21 22 23 23 25 24 22 21 20 20 19 19 19 19 18 18 17 16 15 15 15 15 16 16 16
8 8 8 9 11 10 11 11 11 12 13 13 14 14 16 17 18 18 19 20 21 22 23 24 24 23 21 20 20 20 20 20 19 18 17 17 16 16 15 16 16 16 16 17

GFSCGP_850_temp_042.txt.gz
Temp
14 11 12 13 15 16 16 17 17 19 20 20 20 21 22 23 23 23 23 24 25 26 27 28 29 27 28 28 27 27 27 26 26 24 23 21 20 18 18 17 17 16 16 15
12 11 14 15 15 15 15 14 15 17 19 19 20 20 22 23 23 24 24 24 24 26 28 28 28 28 28 28 27 27 26 26 25 23 22 20 19 18 18 17 17 17 16 16
11 13 15 15 14 15 15 15 15 16 18 19 19 18 19 21 22 23 24 25 26 27 27 27 27 27 28 28 27 26 25 25 23 21 20 19 18 18 18 17 16 16 16 16
11 13 14 14 14 15 14 16 17 16 16 16 20 17 19 21 22 23 23 24 26 27 28 28 28 27 27 27 25 25 24 22 21 19 18 18 18 17 16 17 16 16 16 16
11 12 13 13 14 16 14 17 17 17 16 16 17 15 19 19 20 20 21 24 27 27 27 27 28 27 26 25 24 23 22 20 18 18 17 17 17 16 17 16 16 16 16 15
12 14 13 13 15 15 16 16 16 16 14 14 16 16 18 19 20 21 20 24 26 27 27 27 26 25 24 23 22 21 20 18 17 17 16 17 16 16 16 16 16 16 15 15
12 13 14 15 13 14 14 12 11 11 12 14 17 16 19 19 20 21 21 23 25 27 26 25 26 24 23 22 20 19 17 16 16 16 16 16 16 16 16 16 16 15 15 15
10 10 13 14 13 12 12 11 11 11 12 15 17 16 18 20 22 23 24 24 25 26 26 25 25 23 21 20 19 18 16 16 16 16 16 16 16 15 15 15 15 15 15 14
9 10 12 13 13 13 12 12 13 12 14 13 15 17 20 21 22 22 22 23 25 25 24 23 21 21 19 18 18 17 16 16 16 16 16 15 15 15 15 15 15 15 14 14
10 8 11 12 13 13 12 14 12 11 12 13 15 16 17 19 20 20 20 21 21 21 19 20 20 19 18 18 17 16 16 16 16 16 15 15 15 15 14 14 14 14 14 14
9 7 9 10 11 11 12 12 12 12 12 13 14 15 17 18 18 19 21 21 20 19 19 19 19 18 18 17 16 16 16 16 15 15 15 15 14 15 14 14 14 13 13 13
7 5 5 8 11 13 11 11 11 11 12 12 15 16 19 18 18 19 18 18 19 20 19 19 19 18 17 16 16 16 16 15 15 15 15 15 15 15 14 14 13 13 13 13
7 5 5 6 9 10 10 11 10 9 12 13 13 16 19 19 19 22 18 18 18 17 17 18 17 17 16 16 16 15 15 15 15 15 15 15 15 15 14 14 13 13 13 13
5 5 6 5 8 9 9 10 10 9 9 13 15 16 18 20 21 21 20 19 18 17 18 17 17 17 16 16 16 15 15 15 15 15 15 15 15 15 14 13 13 13 13 13
6 6 7 7 8 9 9 10 10 10 10 9 14 12 16 18 21 21 21 19 18 17 17 17 17 17 17 16 16 16 16 16 15 16 16 16 15 14 13 13 13 13 13 13
4 6 7 7 8 9 9 11 10 11 11 11 11 11 16 18 19 19 20 19 18 18 17 17 17 17 17 17 16 16 16 16 16 16 16 15 15 14 13 13 13 13 13 13
5 5 6 6 7 9 9 10 11 12 12 13 12 14 16 16 16 16 20 20 19 18 18 17 18 18 17 17 17 17 16 16 16 16 16 15 15 14 13 13 13 13 13 13
6 5 6 6 7 7 11 11 11 11 13 13 14 15 15 16 16 16 20 20 19 19 18 18 18 18 18 18 18 17 17 17 17 16 16 15 15 14 13 13 13 13 12 12
7 6 6 6 8 9 11 9 9 9 11 12 12 15 17 14 15 16 17 21 20 20 20 20 20 19 18 18 18 17 17 17 17 16 16 15 15 14 14 14 13 13 12 12
8 8 7 7 7 8 7 8 7 8 10 11 11 14 13 14 14 12 17 20 21 20 21 20 20 20 19 18 18 18 17 17 17 16 16 16 15 14 14 14 13 13 12 12
8 7 6 6 7 8 6 5 7 10 11 9 10 11 15 13 13 17 18 19 21 22 22 21 21 20 19 19 18 18 17 17 17 16 16 16 15 15 14 14 13 13 12 12
5 7 7 6 8 8 5 6 7 7 7 8 9 12 14 15 15 17 18 20 21 21 21 22 21 20 20 19 19 18 18 17 17 17 16 16 15 15 15 14 13 12 12 11
6 6 5 4 5 5 5 5 5 6 7 7 8 12 15 15 16 16 18 19 19 21 20 21 21 20 20 19 19 18 18 17 17 17 17 16 15 15 14 14 14 13 12 12
6 7 7 5 6 7 6 6 6 6 6 7 9 13 13 14 15 15 16 18 18 19 20 20 20 20 20 19 19 19 18 18 17 17 17 16 15 15 14 14 14 14 13 12
6 6 6 7 7 7 7 6 6 6 6 7 10 12 13 14 15 15 15 16 18 20 19 20 20 20 20 19 19 19 18 18 18 18 17 16 16 15 15 14 14 14 14 13
7 6 5 6 7 6 7 7 7 6 7 8 9 12 15 15 16 15 15 16 17 19 19 20 21 20 20 20 19 19 18 18 18 18 17 17 16 15 15 14 14 14 13 13

GFSCGP_850_temp_045.txt.gz
Temp
12 11 11 12 14 15 14 15 15 17 18 19 19 19 20 21 21 21 21 22 23 23 25 26 26 27 27 28 27 28 27 27 27 26 25 24 24 23 20 19 19 18 17 17
11 11 13 14 13 13 13 12 13 15 17 17 17 17 17 18 19 21 21 22 22 23 25 26 27 27 27 27 28 27 27 27 27 26 25 23 23 21 19 18 18 18 17 17
9 12 14 14 13 13 12 13 13 14 15 16 16 16 17 18 18 21 21 22 23 23 24 25 26 27 27 27 27 27 27 27 26 25 23 21 19 18 18 17 17 17 17 16
10 11 12 12 12 13 12 14 15 14 14 13 18 15 17 18 19 20 21 21 22 23 25 25 26 27 27 28 26 26 26 25 24 23 22 20 19 18 18 17 16 16 16 16
10 11 12 12 12 13 12 14 14 14 13 14 14 13 17 17 18 19 18 21 23 24 25 26 26 27 27 26 25 25 24 23 23 21 20 19 18 18 17 16 16 16 16 15
10 13 12 12 13 14 14 14 13 13 12 10 13 13 16 17 18 19 19 20 22 23 25 25 25 26 26 24 24 23 22 21 20 19 18 18 18 17 17 16 16 16 16 15
10 11 12 13 12 12 12 10 9 10 9 12 14 13 17 16 18 18 17 20 22 23 24 25 25 26 26 24 22 21 21 20 18 17 17 17 17 16 16 16 16 16 15 15
9 9 11 13 12 11 10 9 8 10 10 13 16 14 16 18 19 21 22 22 22 23 24 25 24 25 24 21 20 20 19 18 17 16 16 16 16 16 16 16 15 15 15 15
10 10 12 13 13 12 11 10 11 11 12 12 12 15 18 19 18 19 18 21 22 23 23 25 24 22 21 19 19 18 17 17 16 16 16 16 16 16 15 15 15 15 15 14
9 8 10 12 12 12 12 12 10 8 11 11 12 13 15 17 19 20 19 17 22 23 22 23 22 20 19 18 18 17 16 16 16 15 16 15 15 15 15 15 15 14 14 14
7 7 8 10 10 10 11 10 10 10 10 10 11 12 14 16 17 18 16 19 21 23 19 20 19 18 18 17 17 16 15 15 15 15 15 15 15 14 14 14 14 14 14 13
7 5 5 7 9 11 10 10 10 10 10 12 11 13 17 17 16 17 16 20 20 17 16 16 17 17 17 17 16 15 15 15 15 15 15 15 14 14 14 14 14 14 13 13
6 5 5 6 8 9 9 10 10 8 8 11 12 13 16 16 17 17 17 20 18 15 15 15 17 17 16 16 15 15 15 15 15 15 14 14 14 14 14 14 14 13 13 13
6 5 5 4 7 7 7 9 10 8 7 11 12 13 15 16 15 15 16 19 18 15 14 15 16 16 16 15 15 15 15 15 15 14 14 15 15 14 14 14 13 13 13 13
5 6 5 6 7 7 7 7 8 9 9 8 13 12 12 12 13 15 16 17 17 16 15 14 16 16 16 16 15 15 15 15 14 15 15 15 15 14 14 13 13 13 13 13
4 3 5 6 7 8 8 8 8 9 10 10 10 10 12 13 14 16 15 16 17 15 15 15 16 16 16 16 15 15 15 15 15 15 15 15 15 14 13 13 13 13 13 14
4 5 4 6 9 7 7 8 9 9 11 11 9 11 14 14 14 15 15 15 17 16 16 16 17 17 16 16 16 15 15 15 15 15 15 15 15 14 13 13 13 13 13 14
6 4 5 5 7 6 9 9 11 11 11 12 12 12 13 13 15 17 16 16 17 16 16 16 18 17 17 16 16 16 16 15 15 15 15 15 14 14 13 13 13 13 13 13
5 5 5 5 6 8 9 8 8 8 9 11 11 11 12 13 14 15 18 17 18 17 17 18 19 18 17 17 17 16 16 16 16 16 15 15 14 14 14 13 13 13 12 12
6 6 5 5 6 7 6 6 6 6 8 9 9 9 9 12 13 13 18 17 18 18 18 19 19 18 18 17 17 16 16 16 16 16 16 15 14 14 14 13 13 13 12 12
5 5 5 6 6 7 4 4 5 8 9 7 8 9 9 11 13 15 17 18 17 18 19 19 19 19 18 18 17 17 17 16 16 16 16 15 15 14 14 13 13 13 12 12
5 6 7 6 6 7 4 3 7 6 6 7 7 7 8 11 13 15 16 17 18 17 18 20 19 19 19 18 17 17 17 17 17 16 16 15 15 14 14 13 13 12 12 12
6 5 5 4 5 5 4 3 5 5 6 6 6 6 7 10 13 14 16 17 18 18 18 19 20 19 19 18 18 18 18 17 17 16 16 15 15 15 14 13 13 12 12 11
6 6 6 5 6 5 6 5 5 5 5 5 6 6 8 11 12 15 15 15 17 17 17 19 19 20 19 19 18 18 18 17 17 16 16 15 15 15 14 13 13 13 13 12
5 5 6 6 7 7 6 6 4 5 5 5 6 7 10 12 12 14 13 15 16 17 18 19 20 20 20 19 19 18 18 17 17 17 16 16 15 15 15 14 14 14 13 12
7 6 6 6 7 5 5 5 5 4 5 5 5 7 10 13 13 13 13 15 17 18 19 19 19 20 20 20 19 18 18 17 17 17 17 16 16 15 15 15 14 14 13 12

GFSCGP_850_temp_048.txt.gz
Temp
11 9 10 12 13 14 13 14 14 16 17 18 17 18 18 18 19 19 20 21 22 22 24 24 24 25 26 26 26 27 27 28 27 27 26 26 25 24 23 22 20 19 19 18
9 9 11 13 12 13 13 12 12 14 15 16 15 14 15 16 16 18 19 20 20 21 22 23 24 25 25 26 26 27 27 27 27 26 26 26 25 24 22 20 19 18 18 17
7 10 12 12 12 12 12 12 12 13 14 15 14 15 16 16 17 19 19 19 20 21 21 23 24 25 25 26 26 27 26 27 26 25 25 24 23 21 20 20 19 18 17 17
8 10 11 11 11 12 11 12 13 13 13 12 15 14 15 17 16 17 18 19 19 20 22 23 24 24 25 26 26 27 26 26 26 26 24 23 22 22 20 19 18 17 16 16
9 11 11 11 11 12 11 14 13 13 12 12 13 11 14 15 15 16 17 19 19 21 22 23 24 24 25 26 26 26 25 25 25 24 22 22 20 19 18 17 16 16 16 15
9 11 12 11 13 12 13 11 11 11 10 9 11 12 15 16 17 18 17 18 19 20 22 23 23 24 25 25 26 25 24 24 23 22 20 19 19 18 17 16 16 16 16 16
10 10 11 12 11 12 12 9 7 8 8 10 12 12 15 16 16 17 17 18 20 21 22 23 23 23 24 25 24 22 22 22 21 20 19 18 17 17 16 16 16 16 16 15
8 8 10 11 10 10 9 8 7 10 9 10 12 12 14 16 18 18 20 20 19 21 22 23 23 24 24 23 22 21 20 20 19 18 17 17 17 17 16 16 16 15 15 15
6 8 10 11 12 11 10 8 10 10 10 9 10 12 15 17 17 17 17 18 21 22 22 23 23 24 24 22 21 19 19 18 18 17 17 17 16 16 16 16 15 15 15 14
7 8 10 11 12 12 11 11 10 6 10 10 10 11 13 14 16 17 16 15 19 21 21 21 21 22 22 20 19 18 18 18 17 16 16 16 16 15 15 15 15 15 14 14
6 7 8 9 9 10 9 9 10 8 7 10 10 11 11 15 16 17 14 16 18 18 19 17 17 18 19 18 18 17 17 17 16 15 15 15 15 15 15 14 14 14 14 14
6 5 5 7 8 9 9 9 9 8 10 10 8 9 14 14 14 13 13 16 17 17 16 15 14 16 16 17 17 17 16 16 15 15 15 15 15 14 14 14 14 14 13 13
6 4 5 6 8 8 8 8 8 7 7 7 10 11 14 13 14 14 14 16 16 16 16 14 15 15 16 16 16 16 15 15 15 15 15 15 14 14 14 14 14 13 13 13
6 4 5 4 7 7 7 7 8 7 6 9 10 12 13 14 14 13 14 16 16 16 15 15 14 14 15 16 16 15 15 15 14 15 15 14 14 14 14 13 13 13 13 13
5 5 5 5 6 6 6 7 7 7 8 7 10 11 11 11 12 12 14 14 16 15 15 15 15 14 15 15 15 15 15 14 15 14 14 14 14 14 13 13 13 13 13 13
4 5 5 5 7 7 6 7 7 7 8 8 8 8 10 12 13 13 14 15 15 15 14 15 15 15 15 15 15 15 14 15 15 14 14 14 14 14 13 13 13 13 13 13
4 5 5 4 7 7 5 7 7 8 8 9 8 9 11 11 12 13 15 16 16 17 15 15 15 16 16 15 15 15 15 15 15 14 14 14 14 14 13 13 13 13 13 13
4 4 5 4 4 4 9 8 8 8 8 9 10 10 11 12 12 12 13 14 16 17 16 15 16 16 16 15 15 15 15 14 14 14 14 14 14 14 14 13 13 13 13 13
4 5 5 4 4 7 9 7 7 6 8 9 10 10 10 11 9 11 14 15 16 17 17 16 16 17 16 16 16 16 15 14 14 15 15 15 14 14 14 13 13 12 12 13
5 5 5 5 5 6 5 4 4 5 8 8 8 9 9 9 10 12 16 16 17 18 17 16 17 17 17 16 16 15 15 15 15 15 15 15 14 14 13 13 13 12 12 12
5 4 4 5 5 6 4 4 3 7 7 6 7 8 8 8 9 10 12 15 16 17 17 16 17 18 17 16 16 15 15 15 15 15 15 15 14 13 13 13 13 12 12 12
5 5 6 6 6 6 5 3 4 4 3 5 7 7 7 7 8 10 12 15 16 17 17 17 18 18 17 17 16 16 16 16 16 16 15 15 14 13 13 13 13 12 12 12
5 5 5 4 5 5 5 2 3 3 4 6 5 6 6 7 9 10 12 15 17 17 17 17 18 18 18 17 17 17 16 16 16 16 16 15 15 14 13 13 13 12 12 12
5 6 5 6 7 7 5 5 4 4 4 5 5 6 6 6 9 10 12 16 17 17 17 17 18 17 18 17 17 17 17 16 16 16 16 15 15 14 13 13 13 12 12 11
4 5 6 6 7 6 6 5 4 4 4 5 6 6 6 8 10 10 13 15 17 16 16 18 18 18 19 18 18 17 17 17 16 16 16 15 15 14 14 13 13 13 12 11
5 5 6 6 6 5 5 5 5 4 5 5 5 7 8 9 10 11 13 14 16 17 20 19 17 18 19 19 18 18 17 17 16 16 16 16 15 15 14 14 14 13 12 12